1508868000.25,3177,10.69,73926.0,-5.73,-34.25,-37.75,0,*65
1508868001.5,3178,10.69,73924.8,-5.73,-34.35,-37.75,0,*6B
1508868002.73,3179,10.69,73928.8,-5.75,-34.25,-37.69,0,*60
1508868003.98,3180,10.69,73926.3,-5.73,-34.35,-37.75,0,*6C
1508868005.23,3181,10.69,73922.0,-5.73,-34.41,-37.99,0,*6C
1508868006.49,3182,10.69,73916.3,-5.73,-34.59,-38.11,0,*69
1508868007.73,3183,10.69,73916.0,-5.75,-34.59,-37.99,0,*61
1508868008.99,3184,10.69,73922.8,-5.73,-34.59,-38.11,0,*6F
1508868010.23,3185,10.69,73922.3,-5.75,-34.71,-37.99,0,*6D
1508868011.43,3186,10.69,73920.0,-5.75,-34.41,-37.87,0,*62
1508868012.67,3187,10.69,73924.8,-5.71,-34.47,-37.93,0,*64
1508868013.93,3188,10.69,73926.5,-5.75,-34.53,-37.99,0,*60
1508868015.14,3189,10.69,73924.0,-5.75,-34.41,-37.87,0,*6D
1508868016.4,3190,10.69,73920.8,-5.75,-34.53,-38.11,0,*66
1508868017.66,3191,10.69,73924.3,-5.75,-34.53,-37.99,0,*68
1508868018.87,3192,10.69,73926.3,-5.75,-34.41,-37.87,0,*67
1508868020.15,3193,10.69,73926.3,-5.73,-34.19,-37.51,0,*66
1508868021.38,3194,10.69,73930.3,-5.75,-34.13,-37.51,0,*6D
1508868022.59,3195,10.69,73926.5,-5.75,-34.13,-37.33,0,*68
1508868023.84,3196,10.69,73930.5,-5.75,-34.19,-37.39,0,*6B
1508868025.07,3197,10.69,73926.8,-5.75,-34.19,-37.57,0,*62
1508868026.28,3198,10.69,73924.0,-5.75,-34.25,-37.75,0,*62
1508868027.51,3199,10.69,73926.3,-5.75,-34.35,-37.75,0,*62
1508868028.72,3200,10.69,73924.8,-5.75,-34.41,-37.87,0,*6F
1508868029.95,3201,10.69,73922.5,-5.75,-34.41,-37.99,0,*61
1508868031.21,3202,10.69,73924.5,-5.75,-34.53,-37.99,0,*61
1508868032.44,3203,10.69,73928.3,-5.77,-34.59,-38.05,0,*62
1508868033.72,3204,10.69,73930.8,-5.77,-34.31,-37.81,0,*68
1508868034.98,3205,10.69,73926.5,-5.77,-34.25,-37.63,0,*60
1508868036.26,3206,10.69,73924.8,-5.77,-34.31,-37.81,0,*6A
1508868037.52,3207,10.69,73924.0,-5.77,-34.31,-37.75,0,*60
1508868038.8,3208,10.69,73928.0,-5.77,-34.19,-37.63,0,*62
1508868040.03,3209,10.69,73924.8,-5.79,-34.41,-37.81,0,*6C
1508868041.24,3210,10.69,73926.5,-5.79,-34.25,-37.57,0,*6D
1508868042.52,3211,10.69,73930.3,-5.77,-34.31,-37.81,0,*6C
1508868043.77,3212,10.69,73930.0,-5.79,-34.31,-37.93,0,*62
1508868045.0,3213,10.69,73928.5,-5.77,-34.41,-37.75,0,*62
1508868046.29,3214,10.69,73932.8,-5.77,-34.31,-37.63,0,*65
1508868047.49,3215,10.69,73932.8,-5.79,-34.07,-37.45,0,*6B
1508868048.74,3216,10.69,73932.0,-5.77,-34.25,-37.39,0,*6D
1508868050.0,3217,10.69,73928.8,-5.77,-34.07,-37.39,0,*6C
1508868051.29,3218,10.69,73930.8,-5.77,-34.31,-37.81,0,*65
1508868052.52,3219,10.69,73928.5,-5.79,-34.47,-37.93,0,*68
1508868053.76,3220,10.69,73928.5,-5.79,-34.47,-37.81,0,*61
1508868054.99,3221,10.69,73928.0,-5.79,-34.31,-37.75,0,*6A
1508868056.2,3222,10.69,73930.3,-5.79,-34.25,-37.57,0,*6C
1508868057.43,3223,10.69,73932.3,-5.79,-34.25,-37.63,0,*6A
1508868058.69,3224,10.69,73932.3,-5.77,-34.41,-37.81,0,*6D
1508868059.89,3225,10.69,73928.5,-5.79,-34.41,-37.75,0,*69
1508868061.12,3226,10.63,73926.3,-5.79,-34.41,-37.81,0,*61
1508868062.33,3227,10.69,73932.0,-5.79,-34.59,-38.05,0,*6A
1508868063.56,3228,10.69,73932.5,-5.77,-34.59,-38.05,0,*6B
1508868064.76,3229,10.69,73934.3,-5.79,-34.59,-38.05,0,*64
1508868066.0,3230,10.69,73932.3,-5.79,-34.59,-37.93,0,*6C
1508868067.23,3231,10.69,73934.0,-5.79,-34.47,-37.93,0,*62
1508868068.49,3232,10.69,73934.0,-5.83,-34.31,-37.63,0,*6A
1508868069.74,3233,10.69,73932.3,-5.83,-34.31,-37.69,0,*61
1508868070.97,3234,10.69,73932.0,-5.83,-34.25,-37.63,0,*69
1508868072.17,3235,10.69,73930.5,-5.83,-34.07,-37.33,0,*6D
1508868073.38,3236,10.69,73934.3,-5.83,-34.07,-37.45,0,*6F
1508868074.6,3237,10.69,73932.5,-5.83,-33.89,-37.27,0,*6B
1508868075.8,3238,10.69,73938.3,-5.83,-34.07,-37.45,0,*61
1508868076.99,3239,10.69,73934.8,-5.83,-34.25,-37.45,0,*60
1508868078.19,3240,10.69,73934.8,-5.83,-34.13,-37.27,0,*6F
1508868079.42,3241,10.69,73932.8,-5.85,-34.07,-37.27,0,*6D
1508868080.67,3242,10.69,73938.5,-5.83,-33.89,-37.09,0,*65
1508868081.87,3243,10.69,73938.0,-5.79,-34.07,-37.27,0,*6C
1508868083.1,3244,10.63,73934.0,-5.79,-34.01,-37.27,0,*6D
1508868084.33,3245,10.69,73936.5,-5.79,-33.83,-37.09,0,*6D
1508868085.59,3246,10.69,73936.8,-5.77,-33.83,-37.09,0,*60
1508868086.85,3247,10.63,73932.3,-5.79,-33.73,-37.09,0,*60
1508868088.1,3248,10.69,73936.0,-5.83,-33.61,-37.09,0,*69
1508868089.32,3249,10.69,73936.3,-5.79,-33.67,-36.91,0,*6B
1508868090.56,3250,10.63,73936.8,-5.79,-33.83,-37.09,0,*69
1508868091.76,3251,10.69,73940.8,-5.79,-33.67,-37.03,0,*68
1508868092.99,3252,10.69,73940.0,-5.77,-33.83,-37.03,0,*6F
1508868094.22,3253,10.63,73938.0,-5.77,-33.83,-37.03,0,*6E
1508868095.47,3254,10.69,73940.3,-5.77,-33.49,-36.85,0,*60
1508868096.75,3255,10.69,73942.5,-5.77,-33.73,-36.91,0,*6D
1508868097.98,3256,10.69,73940.0,-5.77,-33.83,-37.03,0,*6B
1508868099.21,3257,10.63,73936.5,-5.77,-34.07,-37.45,0,*63
1508868100.49,3258,10.69,73940.0,-5.77,-34.31,-37.63,0,*6D
1508868101.75,3259,10.69,73938.3,-5.77,-34.25,-37.63,0,*69
1508868103.01,3260,10.69,73938.3,-5.77,-34.07,-37.39,0,*6C
1508868104.29,3261,10.63,73932.3,-5.77,-34.01,-37.21,0,*62
1508868105.52,3262,10.69,73936.3,-5.77,-34.07,-37.27,0,*61
1508868106.77,3263,10.69,73934.0,-5.77,-34.19,-37.27,0,*6F
1508868108.05,3264,10.69,73934.5,-5.77,-33.89,-37.09,0,*6A
1508868109.33,3265,10.69,73936.0,-5.77,-33.89,-37.21,0,*61
1508868110.59,3266,10.69,73934.5,-5.77,-34.07,-37.39,0,*6A
1508868111.85,3267,10.69,73934.8,-5.77,-34.07,-37.39,0,*6B
1508868113.07,3268,10.63,73928.8,-5.77,-34.07,-37.27,0,*6B
1508868114.32,3269,10.69,73934.8,-5.77,-34.19,-37.45,0,*61
1508868115.55,3270,10.63,73932.3,-5.79,-34.19,-37.27,0,*63
1508868116.78,3271,10.69,73936.0,-5.77,-34.07,-37.27,0,*63
1508868118.01,3272,10.69,73934.8,-5.77,-34.07,-37.27,0,*60
1508868119.27,3273,10.69,73932.5,-5.77,-34.07,-37.39,0,*6E
1508868120.52,3274,10.69,73932.8,-5.77,-34.19,-37.45,0,*6D
1508868121.75,3275,10.63,73930.3,-5.77,-34.07,-37.27,0,*67
1508868123.03,3276,10.69,73932.5,-5.77,-34.31,-37.63,0,*61
1508868124.29,3277,10.63,73932.8,-5.79,-34.19,-37.39,0,*6B
1508868125.54,3278,10.69,73932.0,-5.77,-34.19,-37.27,0,*65
1508868126.82,3279,10.63,73928.8,-5.77,-34.19,-37.39,0,*6B
1508868128.03,3280,10.69,73932.8,-5.79,-34.07,-37.45,0,*67
1508868129.29,3281,10.69,73934.8,-5.77,-34.07,-37.39,0,*63
1508868130.52,3282,10.69,73934.3,-5.79,-34.07,-37.39,0,*6E
1508868131.78,3283,10.69,73934.8,-5.77,-34.01,-37.27,0,*68
1508868133.0,3284,10.63,73934.3,-5.77,-34.25,-37.45,0,*6D
1508868134.26,3285,10.63,73932.0,-5.77,-34.07,-37.21,0,*6E
1508868135.48,3286,10.69,73936.0,-5.77,-34.07,-37.27,0,*6B
1508868136.77,3287,10.69,73932.8,-5.77,-34.01,-37.09,0,*60
1508868138.0,3288,10.69,73932.8,-5.79,-34.07,-37.21,0,*6D
1508868139.25,3289,10.69,73934.3,-5.77,-34.01,-37.27,0,*62
1508868140.48,3290,10.63,73932.8,-5.79,-33.89,-37.03,0,*65
1508868141.74,3291,10.63,73932.0,-5.77,-33.83,-37.21,0,*60
1508868142.99,3292,10.69,73936.0,-5.77,-34.01,-37.27,0,*68
1508868144.27,3293,10.69,73934.5,-5.77,-34.01,-37.09,0,*65
1508868145.55,3294,10.63,73934.5,-5.77,-33.89,-37.09,0,*65
1508868146.83,3295,10.69,73932.5,-5.77,-34.01,-37.21,0,*69
1508868148.06,3296,10.69,73932.3,-5.79,-34.07,-37.21,0,*62
1508868149.34,3297,10.63,73932.3,-5.77,-33.89,-37.21,0,*6C
1508868150.62,3298,10.69,73932.0,-5.77,-34.01,-37.39,0,*6D
1508868151.91,3299,10.63,73934.0,-5.77,-34.01,-37.09,0,*6F
1508868153.16,3300,10.63,73932.3,-5.77,-33.83,-37.09,0,*63
1508868154.41,3301,10.63,73930.0,-5.77,-33.49,-36.85,0,*61
1508868155.66,3302,10.63,73930.8,-5.75,-33.43,-36.79,0,*69
1508868156.86,3303,10.69,73934.3,-5.75,-33.67,-36.97,0,*6E
1508868158.13,3304,10.63,73934.3,-5.73,-33.61,-36.79,0,*69
1508868159.39,3305,10.63,73932.8,-5.75,-33.49,-36.79,0,*64
1508868160.59,3306,10.69,73932.5,-5.75,-33.67,-36.85,0,*68
1508868161.85,3307,10.63,73932.5,-5.75,-34.01,-37.21,0,*61
1508868163.05,3308,10.63,73930.5,-5.75,-33.95,-37.03,0,*64
1508868164.28,3309,10.63,73930.3,-5.73,-33.95,-37.15,0,*64
1508868165.54,3310,10.63,73930.8,-5.75,-34.01,-37.21,0,*67
1508868166.77,3311,10.69,73930.3,-5.75,-33.83,-37.21,0,*6B
1508868168.0,3312,10.63,73930.8,-5.73,-33.67,-36.97,0,*68
1508868169.23,3313,10.63,73928.0,-5.75,-33.77,-36.97,0,*6E
1508868170.48,3314,10.69,73932.3,-5.73,-33.95,-37.21,0,*6F
1508868171.69,3315,10.63,73928.8,-5.75,-33.83,-37.15,0,*68
1508868172.92,3316,10.63,73932.8,-5.75,-33.95,-37.21,0,*6B
1508868174.17,3317,10.63,73934.3,-5.75,-34.01,-37.21,0,*60
1508868175.38,3318,10.63,73932.3,-5.75,-33.95,-37.15,0,*62
1508868176.61,3319,10.63,73932.8,-5.75,-34.01,-37.15,0,*69
1508868177.85,3320,10.63,73928.0,-5.75,-34.13,-37.39,0,*6E
1508868179.1,3321,10.69,73934.8,-5.73,-34.01,-37.03,0,*63
1508868180.3,3322,10.63,73930.3,-5.75,-33.95,-37.03,0,*6C
1508868181.53,3323,10.63,73934.0,-5.75,-33.95,-37.21,0,*6D
1508868182.74,3324,10.63,73928.0,-5.75,-33.95,-37.15,0,*6D
1508868183.97,3325,10.63,73932.5,-5.75,-34.01,-37.33,0,*62
1508868185.23,3326,10.69,73934.8,-5.75,-34.01,-37.21,0,*62
1508868186.43,3327,10.69,73932.0,-5.75,-33.95,-36.97,0,*65
1508868187.66,3328,10.63,73934.5,-5.73,-33.83,-37.03,0,*67
1508868188.88,3329,10.63,73932.5,-5.73,-33.95,-37.15,0,*66
1508868190.12,3330,10.63,73930.3,-5.75,-34.01,-37.15,0,*62
1508868191.33,3331,10.63,73934.0,-5.75,-33.83,-37.15,0,*6E
1508868192.53,3332,10.63,73932.3,-5.75,-33.83,-37.03,0,*6A
1508868193.73,3333,10.63,73934.5,-5.75,-33.95,-37.03,0,*6C
1508868194.99,3334,10.63,73932.8,-5.75,-34.01,-37.21,0,*61
1508868196.22,3335,10.63,73930.5,-5.73,-33.95,-37.33,0,*6F
1508868197.42,3336,10.63,73932.5,-5.75,-33.95,-37.15,0,*6E
1508868198.62,3337,10.63,73934.8,-5.75,-33.83,-36.97,0,*63
1508868199.86,3338,10.69,73938.5,-5.75,-34.13,-37.21,0,*6E
1508868201.09,3339,10.63,73932.8,-5.75,-34.01,-37.33,0,*6F
1508868202.31,3340,10.63,73934.0,-5.73,-33.95,-37.15,0,*69
1508868203.57,3341,10.63,73930.8,-5.73,-33.77,-37.03,0,*63
1508868204.79,3342,10.63,73932.8,-5.73,-33.95,-37.15,0,*6B
1508868206.02,3343,10.63,73934.5,-5.75,-33.77,-36.97,0,*6B
1508868207.28,3344,10.63,73932.5,-5.73,-34.01,-37.15,0,*67
1508868208.49,3345,10.63,73934.5,-5.75,-33.83,-37.15,0,*6D
1508868209.74,3346,10.63,73934.5,-5.73,-33.77,-37.03,0,*64
1508868211.02,3347,10.63,73934.0,-5.73,-34.01,-37.21,0,*63
1508868212.25,3348,10.63,73934.5,-5.73,-33.83,-37.03,0,*61
1508868213.48,3349,10.63,73938.5,-5.73,-33.83,-37.03,0,*60
1508868214.73,3350,10.63,73928.5,-5.73,-33.77,-36.97,0,*6F
1508868215.99,3351,10.63,73934.8,-5.75,-34.01,-37.21,0,*62
1508868217.22,3352,10.63,73934.3,-5.75,-34.01,-37.33,0,*62
1508868218.5,3353,10.63,73930.3,-5.73,-34.01,-37.21,0,*66
1508868219.73,3354,10.63,73932.5,-5.75,-33.83,-37.21,0,*6A
1508868220.99,3355,10.63,73932.5,-5.73,-34.01,-37.33,0,*63
1508868222.24,3356,10.63,73930.5,-5.75,-34.19,-37.39,0,*65
1508868223.5,3357,10.63,73934.0,-5.73,-34.13,-37.21,0,*61
1508868224.76,3358,10.63,73932.8,-5.75,-34.01,-37.21,0,*6B
1508868225.98,3359,10.63,73934.0,-5.75,-33.61,-36.85,0,*64
1508868227.23,3360,10.63,73932.3,-5.73,-33.77,-36.97,0,*6C
1508868228.49,3361,10.63,73934.0,-5.75,-34.01,-37.21,0,*61
1508868229.75,3362,10.63,73930.0,-5.73,-34.13,-37.21,0,*67
1508868230.95,3363,10.63,73932.3,-5.75,-33.95,-37.03,0,*69
1508868232.18,3364,10.63,73930.0,-5.73,-33.83,-37.03,0,*6F
1508868233.43,3365,10.63,73928.8,-5.73,-33.77,-36.97,0,*69
1508868234.66,3366,10.69,73936.3,-5.73,-33.83,-37.03,0,*6D
1508868235.93,3367,10.63,73932.5,-5.73,-33.61,-36.79,0,*6C
1508868237.18,3368,10.63,73934.0,-5.73,-33.77,-37.03,0,*68
1508868238.44,3369,10.63,73934.3,-5.73,-34.13,-37.39,0,*65
1508868239.72,3370,10.63,73934.0,-5.73,-34.19,-37.39,0,*67
1508868240.94,3371,10.63,73934.5,-5.73,-34.25,-37.57,0,*61
1508868242.23,3372,10.63,73930.5,-5.73,-34.01,-37.21,0,*65
1508868243.48,3373,10.63,73930.0,-5.73,-33.77,-37.03,0,*62
1508868244.71,3374,10.63,73926.8,-5.75,-34.01,-37.15,0,*62
1508868245.94,3375,10.63,73928.0,-5.73,-33.83,-37.03,0,*6F
1508868247.17,3376,10.69,73932.3,-5.73,-33.83,-37.03,0,*6C
1508868248.45,3377,10.63,73930.3,-5.73,-34.19,-37.51,0,*6E
1508868249.68,3378,10.63,73930.3,-5.75,-33.95,-37.21,0,*63
1508868250.94,3379,10.63,73926.5,-5.75,-34.19,-37.39,0,*68
1508868252.16,3380,10.63,73924.0,-5.73,-34.13,-37.33,0,*68
1508868253.45,3381,10.63,73930.8,-5.73,-34.01,-37.21,0,*69
1508868254.7,3382,10.63,73928.5,-5.73,-33.95,-37.21,0,*60
1508868255.96,3383,10.63,73928.8,-5.73,-34.13,-37.51,0,*6F
1508868257.18,3384,10.63,73930.0,-5.73,-34.13,-37.33,0,*6C
1508868258.41,3385,10.63,73930.3,-5.75,-34.01,-37.33,0,*68
1508868259.67,3386,10.63,73930.3,-5.73,-34.01,-37.33,0,*6D
1508868260.95,3387,10.63,73928.3,-5.73,-34.19,-37.51,0,*61
1508868262.23,3388,10.63,73924.8,-5.73,-34.19,-37.51,0,*6E
1508868263.46,3389,10.69,73932.0,-5.73,-33.95,-37.15,0,*6C
1508868264.68,3390,10.63,73926.3,-5.75,-33.61,-36.97,0,*62
1508868265.91,3391,10.63,73930.3,-5.73,-33.83,-37.03,0,*65
1508868267.19,3392,10.63,73928.5,-5.73,-34.19,-37.39,0,*6B
1508868268.42,3393,10.63,73930.3,-5.75,-34.13,-37.51,0,*68
1508868269.63,3394,10.63,73930.8,-5.75,-33.83,-37.15,0,*61
1508868270.91,3395,10.63,73928.3,-5.73,-34.01,-37.21,0,*6C
1508868272.17,3396,10.63,73930.5,-5.73,-34.25,-37.51,0,*6E
1508868273.43,3397,10.63,73928.0,-5.75,-34.19,-37.39,0,*68
1508868274.68,3398,10.63,73930.5,-5.73,-33.77,-36.97,0,*6B
1508868275.91,3399,10.63,73930.0,-5.75,-34.13,-37.39,0,*6C
1508868277.15,3400,10.63,73930.5,-5.75,-34.13,-37.51,0,*65
1508868278.37,3401,10.63,73928.8,-5.73,-33.95,-37.15,0,*6B
1508868279.58,3402,10.63,73928.5,-5.75,-33.95,-37.15,0,*6E
1508868280.8,3403,10.63,73928.5,-5.75,-33.61,-36.97,0,*6F
1508868282.08,3404,10.63,73932.3,-5.73,-34.19,-37.39,0,*63
1508868283.34,3405,10.63,73932.0,-5.73,-34.13,-37.39,0,*68
1508868284.57,3406,10.63,73930.8,-5.75,-34.19,-37.33,0,*6D
1508868285.82,3407,10.63,73928.5,-5.73,-34.13,-37.21,0,*63
1508868287.08,3408,10.63,73932.0,-5.75,-34.19,-37.51,0,*67
1508868288.32,3409,10.63,73930.8,-5.75,-34.13,-37.39,0,*62
1508868289.57,3410,10.63,73930.0,-5.73,-33.95,-37.21,0,*6C
1508868290.85,3411,10.63,73930.8,-5.73,-34.01,-37.39,0,*6E
1508868292.09,3412,10.63,73930.3,-5.75,-34.53,-37.75,0,*64
1508868293.31,3413,10.63,73930.8,-5.73,-34.41,-37.75,0,*60
1508868294.57,3414,10.63,73928.8,-5.75,-34.19,-37.39,0,*64
1508868295.83,3415,10.63,73930.5,-5.73,-34.13,-37.39,0,*69
1508868297.03,3416,10.63,73930.8,-5.75,-34.13,-37.57,0,*64
1508868298.27,3417,10.63,73928.5,-5.75,-34.13,-37.51,0,*63
1508868299.53,3418,10.63,73928.8,-5.75,-34.19,-37.39,0,*68
1508868300.79,3419,10.63,73930.0,-5.75,-34.19,-37.51,0,*67
1508868302.04,3420,10.63,73928.3,-5.75,-34.01,-37.21,0,*63
1508868303.28,3421,10.63,73934.0,-5.75,-34.13,-37.21,0,*61
1508868304.51,3422,10.63,73932.0,-5.75,-34.13,-37.39,0,*6B
1508868305.72,3423,10.63,73926.8,-5.75,-34.13,-37.33,0,*60
1508868306.92,3424,10.63,73930.5,-5.75,-33.83,-37.03,0,*6A
1508868308.15,3425,10.63,73928.0,-5.73,-33.83,-37.03,0,*6D
1508868309.4,3426,10.63,73926.5,-5.73,-34.01,-37.33,0,*60
1508868310.65,3427,10.63,73928.5,-5.73,-33.95,-37.21,0,*68
1508868311.89,3428,10.63,73924.3,-5.75,-34.35,-37.57,0,*6D
1508868313.14,3429,10.63,73928.0,-5.75,-34.19,-37.51,0,*64
1508868314.41,3430,10.63,73934.5,-5.75,-34.53,-37.99,0,*66
1508868315.66,3431,10.63,73930.5,-5.75,-34.19,-37.51,0,*6D
1508868316.92,3432,10.63,73928.5,-5.75,-34.19,-37.51,0,*6E
1508868318.16,3433,10.63,73932.8,-5.75,-34.13,-37.51,0,*65
1508868319.39,3434,10.63,73932.0,-5.75,-34.01,-37.33,0,*65
1508868320.59,3435,10.63,73932.8,-5.75,-34.13,-37.33,0,*67
1508868321.85,3436,10.63,73934.8,-5.75,-34.19,-37.39,0,*64
1508868323.08,3437,10.63,73934.8,-5.75,-34.13,-37.39,0,*6F
1508868324.34,3438,10.63,73934.5,-5.77,-34.01,-37.27,0,*6E
1508868325.59,3439,10.63,73934.5,-5.75,-34.35,-37.69,0,*60
1508868326.84,3440,10.63,73938.0,-5.75,-34.19,-37.51,0,*6B
1508868328.13,3441,10.63,73934.5,-5.77,-34.31,-37.63,0,*63
1508868329.41,3442,10.63,73932.3,-5.77,-34.31,-37.63,0,*60
1508868330.64,3443,10.63,73930.8,-5.77,-34.59,-38.05,0,*60
1508868331.9,3444,10.63,73932.3,-5.77,-34.31,-37.57,0,*61
1508868333.18,3445,10.63,73932.8,-5.77,-34.19,-37.39,0,*62
1508868334.43,3446,10.63,73934.5,-5.77,-34.19,-37.45,0,*6A
1508868335.71,3447,10.69,73938.8,-5.77,-34.19,-37.39,0,*60
1508868336.96,3448,10.63,73928.8,-5.77,-34.19,-37.27,0,*60
1508868338.19,3449,10.63,73930.0,-5.77,-34.07,-37.27,0,*6E
1508868339.44,3450,10.63,73934.0,-5.77,-34.01,-37.27,0,*60
1508868340.73,3451,10.63,73934.0,-5.77,-34.31,-37.81,0,*6E
1508868341.98,3452,10.63,73936.8,-5.77,-34.41,-37.81,0,*6A
1508868343.23,3453,10.63,73936.3,-5.77,-34.19,-37.45,0,*6E
1508868344.45,3454,10.63,73928.3,-5.79,-34.19,-37.45,0,*67
1508868345.7,3455,10.63,73926.0,-5.77,-34.19,-37.27,0,*6C
1508868346.91,3456,10.63,73926.8,-5.75,-33.83,-37.15,0,*68
1508868348.17,3457,10.63,73926.0,-5.77,-33.73,-37.03,0,*63
1508868349.42,3458,10.63,73924.8,-5.77,-33.67,-36.91,0,*63
1508868350.67,3459,10.63,73924.8,-5.77,-33.89,-37.03,0,*68
1508868351.89,3460,10.63,73926.8,-5.75,-33.61,-36.85,0,*69
1508868353.15,3461,10.63,73930.5,-5.75,-33.49,-36.79,0,*61
1508868354.4,3462,10.63,73928.5,-5.75,-33.49,-36.79,0,*62
1508868355.65,3463,10.63,73928.3,-5.73,-33.95,-37.21,0,*68
1508868356.86,3464,10.63,73934.3,-5.75,-33.83,-37.15,0,*69
1508868358.12,3465,10.63,73928.3,-5.75,-34.19,-37.39,0,*62
1508868359.37,3466,10.63,73930.0,-5.73,-34.01,-37.33,0,*64
1508868360.62,3467,10.63,73928.5,-5.73,-34.19,-37.33,0,*6C
1508868361.83,3468,10.63,73930.5,-5.75,-33.83,-37.15,0,*65
1508868363.09,3469,10.63,73928.8,-5.73,-33.77,-37.15,0,*69
1508868364.34,3470,10.63,73926.8,-5.73,-33.77,-37.03,0,*66
1508868365.59,3471,10.63,73930.8,-5.73,-33.77,-36.97,0,*6B
1508868366.84,3472,10.63,73928.8,-5.73,-33.77,-37.03,0,*64
1508868368.07,3473,10.63,73930.5,-5.73,-33.83,-37.03,0,*6E
1508868369.35,3474,10.63,73930.5,-5.73,-34.01,-37.21,0,*64
1508868370.6,3475,10.63,73930.8,-5.73,-33.77,-36.97,0,*6F
1508868371.86,3476,10.63,73930.3,-5.73,-33.83,-37.21,0,*6B
1508868373.11,3477,10.63,73930.3,-5.73,-34.13,-37.39,0,*6D
1508868374.37,3478,10.63,73928.3,-5.73,-34.19,-37.33,0,*62
1508868375.6,3479,10.63,73928.0,-5.75,-34.01,-37.15,0,*68
1508868376.8,3480,10.63,73924.5,-5.75,-33.95,-37.15,0,*64
1508868378.06,3481,10.63,73926.3,-5.73,-33.49,-36.85,0,*6A
1508868379.28,3482,10.63,73930.0,-5.73,-33.83,-37.03,0,*60
1508868380.51,3483,10.63,73926.0,-5.73,-33.95,-37.15,0,*61
1508868381.74,3484,10.63,73926.0,-5.73,-33.95,-37.15,0,*66
1508868383.0,3485,10.63,73928.5,-5.71,-33.73,-36.91,0,*60
1508868384.26,3486,10.63,73928.5,-5.71,-33.73,-36.91,0,*63
1508868385.49,3487,10.63,73926.5,-5.71,-33.77,-36.97,0,*60
1508868386.7,3488,10.63,73924.8,-5.71,-34.07,-37.33,0,*60
1508868387.91,3489,10.63,73922.5,-5.71,-34.07,-37.15,0,*65
1508868389.16,3490,10.63,73926.3,-5.71,-33.61,-36.79,0,*61
1508868390.39,3491,10.63,73926.5,-5.69,-33.55,-36.73,0,*64
1508868391.65,3492,10.63,73920.8,-5.71,-33.77,-37.09,0,*62
1508868392.9,3493,10.63,73930.3,-5.71,-33.61,-36.91,0,*64
1508868394.13,3494,10.63,73926.3,-5.71,-33.73,-36.97,0,*66
1508868395.37,3495,10.63,73928.5,-5.71,-33.77,-36.97,0,*63
1508868396.59,3496,10.63,73926.8,-5.69,-33.55,-36.73,0,*63
1508868397.79,3497,10.63,73928.5,-5.71,-33.95,-37.27,0,*67
1508868399.0,3498,10.63,73928.3,-5.71,-34.07,-37.45,0,*60
1508868400.26,3499,10.63,73930.8,-5.71,-33.77,-37.09,0,*69
1508868401.51,3500,10.63,73928.3,-5.71,-33.77,-37.09,0,*68
1508868402.79,3501,10.63,73928.3,-5.69,-33.73,-36.91,0,*64
1508868404.06,3502,10.63,73930.5,-5.71,-34.31,-37.51,0,*62
1508868405.28,3503,10.63,73926.8,-5.71,-34.19,-37.45,0,*6C
1508868406.54,3504,10.63,73930.5,-5.71,-34.35,-37.81,0,*6D
1508868407.75,3505,10.63,73928.3,-5.71,-33.95,-37.15,0,*6C
1508868409.01,3506,10.63,73928.8,-5.71,-33.89,-37.09,0,*6F
1508868410.26,3507,10.63,73926.3,-5.71,-33.89,-37.09,0,*6E
1508868411.49,3508,10.63,73922.5,-5.69,-33.55,-36.73,0,*65
1508868412.72,3509,10.63,73930.3,-5.71,-33.43,-36.73,0,*6A
1508868413.93,3510,10.63,73930.8,-5.71,-33.37,-36.73,0,*61
1508868415.14,3511,10.63,73928.0,-5.71,-33.55,-36.73,0,*64
1508868416.36,3512,10.63,73930.0,-5.69,-33.55,-36.73,0,*6E
1508868417.59,3513,10.63,73930.3,-5.71,-33.55,-36.91,0,*6A
1508868418.84,3514,10.63,73930.0,-5.71,-33.61,-36.91,0,*6A
1508868420.1,3515,10.63,73928.3,-5.69,-33.31,-36.67,0,*6E
1508868421.33,3516,10.63,73930.3,-5.71,-33.43,-36.73,0,*64
1508868422.56,3517,10.63,73926.5,-5.69,-33.55,-36.73,0,*6B
1508868423.78,3518,10.63,73930.5,-5.69,-33.55,-36.85,0,*6D
1508868425.04,3519,10.63,73930.3,-5.69,-33.31,-36.55,0,*63
1508868426.27,3520,10.63,73930.0,-5.69,-33.37,-36.73,0,*6B
1508868427.47,3521,10.63,73928.3,-5.67,-33.55,-36.73,0,*60
1508868428.71,3522,10.63,73924.3,-5.65,-33.37,-36.55,0,*61
1508868429.91,3523,10.63,73928.8,-5.67,-33.55,-36.73,0,*62
1508868431.14,3524,10.63,73928.0,-5.67,-33.31,-36.55,0,*63
1508868432.42,3525,10.63,73930.3,-5.65,-33.31,-36.49,0,*6D
1508868433.67,3526,10.63,73928.0,-5.65,-33.21,-36.49,0,*6F
1508868434.9,3527,10.63,73930.3,-5.65,-33.21,-36.43,0,*64
1508868436.17,3528,10.63,73930.8,-5.65,-33.31,-36.49,0,*60
1508868437.43,3529,10.63,73930.3,-5.63,-33.31,-36.49,0,*67
1508868438.65,3530,10.63,73930.0,-5.65,-33.15,-36.43,0,*65
1508868439.87,3531,10.63,73928.0,-5.63,-33.15,-36.37,0,*61
1508868441.13,3532,10.63,73930.0,-5.63,-33.31,-36.61,0,*67
1508868442.41,3533,10.63,73928.3,-5.61,-33.27,-36.49,0,*69
1508868443.67,3534,10.63,73930.3,-5.61,-33.43,-36.67,0,*60
1508868444.9,3535,10.63,73928.0,-5.63,-33.43,-36.67,0,*63
1508868446.16,3536,10.63,73928.3,-5.61,-33.43,-36.67,0,*62
1508868447.41,3537,10.63,73932.5,-5.61,-33.27,-36.43,0,*67
1508868448.68,3538,10.63,73926.8,-5.61,-33.49,-36.67,0,*66
1508868449.91,3539,10.63,73930.5,-5.63,-33.77,-37.03,0,*6B
1508868451.18,3540,10.63,73930.3,-5.61,-33.61,-36.79,0,*6C
1508868452.46,3541,10.63,73930.5,-5.61,-33.49,-36.79,0,*67
1508868453.72,3542,10.63,73928.8,-5.61,-33.67,-36.79,0,*68
1508868454.95,3543,10.63,73926.5,-5.63,-33.31,-36.67,0,*67
1508868456.19,3544,10.63,73928.5,-5.63,-33.49,-36.67,0,*6F
1508868457.46,3545,10.63,73932.0,-5.57,-33.61,-36.91,0,*6A
1508868458.73,3546,10.63,73934.8,-5.57,-33.61,-36.79,0,*6F
1508868459.96,3547,10.63,73930.0,-5.61,-33.67,-36.85,0,*6E
1508868461.2,3548,10.63,73930.8,-5.61,-33.67,-36.97,0,*62
1508868462.45,3549,10.63,73924.5,-5.61,-33.77,-36.85,0,*61
1508868463.71,3550,10.63,73926.5,-5.61,-33.49,-36.67,0,*68
1508868464.96,3551,10.63,73928.0,-5.57,-33.55,-36.61,0,*67
1508868466.24,3552,10.63,73930.5,-5.57,-33.43,-36.61,0,*63
1508868467.52,3553,10.63,73928.0,-5.57,-33.73,-36.91,0,*6E
1508868468.79,3554,10.63,73926.5,-5.57,-33.61,-36.79,0,*6C
1508868470.04,3555,10.63,73928.5,-5.57,-33.77,-36.97,0,*6A
1508868471.3,3556,10.63,73928.8,-5.57,-33.77,-36.97,0,*69
1508868472.55,3557,10.63,73928.8,-5.57,-33.77,-36.97,0,*68
1508868473.8,3558,10.63,73934.3,-5.57,-33.77,-36.97,0,*67
1508868475.03,3559,10.63,73930.8,-5.55,-33.77,-36.97,0,*64
1508868476.28,3560,10.63,73930.0,-5.57,-33.77,-36.97,0,*6C
1508868477.56,3561,10.63,73928.0,-5.57,-33.73,-36.91,0,*6F
1508868478.81,3562,10.63,73926.8,-5.57,-28.31,-35.23,0,*6A
1508868480.03,3563,10.63,73930.0,-5.57,-28.15,-35.17,0,*6A
1508868481.29,3564,10.63,73926.3,-5.57,-28.37,-35.41,0,*6E
1508868482.54,3565,10.63,73930.3,-5.55,-28.09,-35.23,0,*64
1508868483.82,3566,10.63,73930.8,-5.57,-28.25,-35.23,0,*6B
1508868485.09,3567,10.63,73928.8,-5.57,-28.25,-35.23,0,*6A
1508868486.32,3568,10.63,73926.8,-5.57,-28.15,-35.17,0,*61
1508868487.55,3569,10.63,73924.8,-5.57,-28.31,-35.29,0,*6B
1508868488.8,3570,10.63,73926.8,-5.57,-28.31,-35.41,0,*6D
1508868490.03,3571,10.63,73924.5,-5.55,-28.05,-35.17,0,*6A
1508868491.31,3572,10.63,73924.8,-5.57,-28.25,-35.23,0,*6E
1508868492.54,3573,10.63,73926.8,-5.57,-28.31,-35.29,0,*60
1508868493.78,3574,10.63,73924.3,-5.57,-28.37,-35.47,0,*69
1508868495.01,3575,10.63,73924.8,-5.61,-28.37,-35.47,0,*6D
1508868496.27,3576,10.63,73924.3,-5.61,-28.43,-35.47,0,*6D
1508868497.53,3577,10.63,73926.5,-5.57,-28.37,-35.41,0,*6C
1508868498.76,3578,10.63,73926.0,-5.61,-28.37,-35.47,0,*60
1508868500.05,3579,10.63,73928.3,-5.61,-28.21,-35.23,0,*64
1508868501.27,3580,10.63,73920.3,-5.57,-27.93,-34.89,0,*60
1508868502.52,3581,10.63,73922.5,-5.57,-27.99,-34.89,0,*6B
1508868503.8,3582,10.63,73926.0,-5.57,-27.99,-35.07,0,*6F
1508868505.08,3583,10.63,73920.3,-5.57,-28.25,-35.07,0,*66